RH
22 22 22 22 22 22 21 21 22 21 22 21 18 18 19 18 23 27 27 37 60 83 98 102 98 96 93 87 84 84 81 75 68 66 65 65 67 70 73 74 81 91 88 83 87 86 84 85 82 78 74 67 60 54 53 54 53 52 53 54 53 50 47
26 26 26 25 25 27 25 25 26 26 27 27 25 22 21 20 22 25 24 24 31 46 75 99 101 98 96 91 87 85 85 82 74 69 67 66 68 71 73 76 81 89 92 89 90 90 90 91 90 86 80 75 69 60 54 56 58 58 57 56 55 52 50
29 30 31 31 31 31 31 31 30 31 32 32 31 29 26 25 25 27 27 28 28 28 51 87 102 100 96 93 88 84 86 89 79 71 69 67 67 71 73 76 81 87 92 93 91 92 93 93 93 90 85 80 74 66 61 60 61 63 61 58 57 55 52
36 37 37 37 37 36 36 36 34 34 34 33 35 34 32 31 30 31 30 30 33 32 40 70 96 103 98 95 94 90 90 93 84 73 70 69 69 72 74 77 83 88 92 94 94 94 95 96 95 93 87 83 79 74 69 65 64 65 63 60 59 57 55
42 43 43 42 42 42 41 41 40 39 39 38 39 39 39 39 37 37 38 36 38 40 41 53 76 98 103 99 99 98 96 94 87 77 72 72 74 75 77 80 85 91 94 97 97 97 98 98 98 96 90 86 83 80 76 72 67 67 66 63 59 58 57
46 48 49 46 47 47 46 46 47 46 45 45 46 47 48 49 49 48 48 48 47 49 51 51 57 77 97 102 101 101 100 96 89 81 75 75 78 79 82 85 89 94 98 100 100 99 100 101 99 99 95 88 85 84 81 76 71 70 70 66 60 59 60
51 52 52 50 51 52 51 51 51 51 52 52 52 53 53 54 58 59 58 58 58 59 63 64 61 66 83 98 101 100 101 99 93 87 81 80 82 83 86 90 93 98 101 101 101 100 101 101 100 100 97 91 88 88 86 82 79 75 71 67 63 61 62
55 56 55 54 54 52 53 55 54 55 56 55 55 58 63 70 77 81 82 82 82 82 83 85 84 82 85 94 100 100 101 101 98 93 88 85 86 88 91 94 97 100 101 101 101 101 100 100 100 101 100 96 93 93 91 85 80 75 70 69 68 65 64
58 58 56 56 55 54 55 56 56 59 60 64 74 81 88 94 96 98 99 98 99 99 98 98 97 95 93 94 99 101 101 101 101 98 95 91 91 92 94 97 99 101 101 100 100 100 100 100 100 100 101 100 96 94 91 85 80 77 73 72 72 68 66
59 59 58 57 55 55 57 57 59 62 63 78 96 100 99 101 100 100 100 100 101 99 99 100 98 98 98 98 100 101 98 97 95 95 97 96 91 92 95 99 101 101 100 101 101 100 100 100 100 100 101 99 94 92 92 87 82 80 78 77 77 72 68
59 59 58 58 56 56 59 62 66 65 69 89 103 99 99 102 100 101 101 100 101 100 98 97 94 94 97 99 103 100 93 88 80 80 92 92 82 85 94 98 101 102 99 100 101 99 100 100 99 100 99 96 93 94 94 89 84 84 84 83 82 78 71
61 60 58 59 59 61 63 65 68 68 74 87 89 84 93 103 100 101 102 100 101 100 99 98 96 94 93 95 99 95 92 92 80 73 82 81 73 84 96 93 94 101 100 100 101 100 100 100 99 101 99 92 91 95 94 88 86 88 87 86 87 83 74
62 60 60 63 66 68 67 65 66 68 70 74 77 83 94 100 100 101 103 103 103 101 98 97 97 95 91 89 88 86 90 99 95 87 86 78 74 88 98 91 88 92 94 96 100 100 99 99 99 100 96 88 87 92 93 90 89 90 89 87 89 83 74
62 61 63 68 72 71 66 64 67 69 66 67 77 87 91 92 95 99 99 99 100 99 97 98 99 99 96 93 93 93 92 95 98 98 95 86 81 87 94 92 89 91 91 93 96 96 97 97 96 96 90 84 85 88 89 89 89 89 89 88 89 84 76
66 68 68 71 74 71 67 67 71 74 74 75 79 83 85 87 90 92 92 91 93 94 95 95 93 91 90 90 94 97 92 87 92 96 94 94 91 90 92 92 92 95 98 99 98 98 99 98 96 94 89 84 86 86 85 89 91 92 95 94 93 88 78
71 75 74 71 70 72 74 73 73 78 85 90 87 81 81 83 81 82 85 87 92 93 91 87 86 86 83 81 86 94 88 79 82 90 94 100 99 95 95 93 90 91 95 98 99 99 100 101 99 98 95 91 91 89 88 94 97 99 101 99 95 89 77
75 76 75 72 70 76 82 77 72 77 90 99 97 91 89 87 83 83 85 88 91 91 89 90 92 93 90 84 82 87 81 69 74 90 99 101 101 99 100 99 91 84 86 93 95 90 90 93 91 89 90 91 94 95 96 100 101 101 101 99 94 86 74
79 74 71 71 73 80 85 81 73 76 90 100 100 100 101 99 95 94 92 91 91 90 94 98 97 93 92 90 82 76 68 59 72 96 103 100 101 100 99 102 97 85 83 90 95 93 92 93 88 85 86 89 93 96 95 96 98 96 97 98 92 81 76
81 76 69 70 75 79 83 83 78 79 92 100 99 101 103 100 100 100 98 95 93 92 93 96 96 89 84 84 78 71 66 61 72 97 104 98 101 101 98 101 99 89 83 84 89 94 98 100 97 95 97 97 98 99 94 91 91 88 92 97 89 79 84
81 79 73 72 76 77 78 82 84 86 95 100 100 100 100 100 102 102 100 96 91 90 88 89 93 88 76 73 73 70 68 65 75 97 104 98 101 102 97 96 93 87 84 81 83 86 90 93 94 95 99 100 100 102 98 95 93 88 89 92 84 82 91
78 81 79 76 77 78 76 79 87 94 98 101 101 95 92 96 97 93 94 93 85 88 92 89 89 86 78 79 80 76 73 71 78 96 103 99 97 92 88 88 84 80 81 83 86 87 84 83 83 86 96 101 99 100 99 99 99 94 91 90 83 87 92
77 84 86 80 77 76 74 77 87 96 100 102 100 91 85 89 88 83 89 94 91 94 98 91 87 86 86 88 86 80 77 73 78 94 102 97 92 85 84 86 83 80 84 88 91 91 86 82 78 81 93 101 100 98 97 97 100 100 98 91 85 88 88
79 89 93 88 81 73 71 78 90 97 99 101 100 91 80 79 83 86 94 100 100 99 94 89 89 91 93 94 89 83 80 75 80 96 100 93 90 89 91 94 91 90 92 94 94 93 91 89 84 83 94 101 101 99 98 97 97 100 100 93 88 93 91
85 95 99 96 91 81 77 86 96 100 100 100 101 96 83 76 83 94 100 102 101 95 88 87 91 93 94 95 88 83 83 81 85 95 95 89 91 95 98 100 99 96 95 97 98 96 94 93 88 86 94 100 100 99 100 100 99 99 100 96 93 97 92
91 99 101 101 100 95 92 96 101 102 101 99 100 100 90 83 87 96 100 99 95 90 86 86 89 91 93 92 89 87 89 90 92 96 95 94 97 100 100 100 100 97 95 98 100 97 95 94 88 83 86 93 98 100 99 100 100 99 100 99 98 98 93
98 101 102 101 101 100 100 100 98 99 100 100 101 98 91 90 94 95 94 88 81 84 89 86 86 93 94 93 96 98 97 98 99 99 99 99 100 101 101 100 100 99 95 94 95 93 91 89 84 77 75 78 87 97 100 100 100 100 99 99 98 99 99
101 102 102 102 101 100 101 98 95 97 99 100 100 93 86 92 101 100 95 86 78 83 89 84 85 96 98 94 96 99 100 101 101 99 100 102 100 100 101 100 100 98 92 87 86 87 88 87 85 82 79 76 78 88 97 101 101 100 100 99 98 100 101
103 102 101 101 100 100 101 99 97 99 100 100 102 96 88 90 98 101 100 91 82 83 87 84 88 99 98 93 95 99 101 101 98 96 98 100 100 100 100 100 100 98 95 91 90 90 92 94 95 93 92 89 84 84 93 100 100 99 100 100 99 100 101
103 103 101 101 100 100 101 101 101 101 99 99 102 101 95 94 97 100 100 96 90 88 86 85 91 98 100 98 99 100 101 100 99 98 96 96 98 99 97 98 100 101 100 99 99 99 99 100 101 100 98 96 90 83 85 89 90 93 98 101 101 100 100
104 103 102 101 101 100 100 101 101 101 100 100 100 100 100 99 99 98 96 94 96 95 89 86 91 97 100 100 98 96 98 97 95 93 90 87 88 86 82 83 90 97 101 100 100 101 101 100 101 101 101 100 95 87 84 84 86 91 98 100 99 97 97
98 100 100 100 101 102 100 100 100 100 100 101 99 99 100 100 100 100 97 95 98 98 94 92 94 96 96 94 92 93 97 96 93 94 92 87 83 79 76 75 78 87 99 102 99 100 102 101 101 101 101 102 101 97 95 95 96 98 99 98 96 93 94
88 90 90 91 96 100 100 100 102 101 100 100 101 100 100 99 98 99 100 99 100 101 99 96 92 90 90 90 92 96 98 93 90 95 99 97 92 90 89 84 77 81 94 102 100 99 101 101 100 100 101 101 101 101 100 101 101 101 99 99 98 96 96
84 84 84 83 88 96 101 102 102 101 100 100 101 101 101 100 97 98 100 100 100 101 101 98 94 92 93 94 97 100 100 94 90 92 95 97 98 99 97 88 79 80 91 100 101 100 100 100 100 100 100 100 100 100 101 100 100 100 100 100 101 100 99
76 78 81 81 83 91 99 101 99 101 102 102 101 103 102 96 92 94 98 100 100 100 101 100 98 98 100 100 99 100 101 100 99 98 95 95 97 100 97 89 82 82 89 97 100 100 100 101 100 100 100 100 100 100 100 100 100 100 100 100 100 100 100
78 78 81 83 85 91 97 97 97 100 102 102 103 102 93 83 84 92 98 100 101 100 100 101 100 100 100 100 100 100 101 101 101 101 99 97 97 98 96 90 86 85 88 94 100 101 100 101 101 100 100 100 100 100 100 100 100 100 100 100 100 100 99
91 86 83 83 85 90 93 92 93 97 102 103 104 100 91 86 92 99 100 99 100 100 100 100 100 100 100 100 100 100 101 100 100 101 101 99 99 100 98 94 93 92 91 94 99 101 100 100 100 100 100 100 100 100 100 98 98 99 99 99 100 100 96
Wind_Speed
45 46 46 47 47 47 47 47 46 46 45 45 45 44 44 44 43 44 46 46 45 43 42 43 45 47 48 48 49 48 44 42 42 41 41 39 40 42 42 42 41 42 48 48 39 37 37 33 32 34 34 35 34 33 32 31 30 31 31 31 30 29 29
46 46 47 48 48 48 48 47 47 46 46 46 47 47 46 46 45 46 47 47 47 47 45 44 45 47 49 48 49 50 47 44 43 43 43 41 40 42 43 42 42 42 44 46 43 39 37 35 34 36 38 38 39 38 36 35 35 35 34 33 32 31 30
47 47 48 48 48 48 48 48 47 47 46 47 47 48 48 48 47 47 48 49 49 49 46 45 45 47 48 48 49 50 49 47 45 44 44 43 41 42 43 43 43 43 43 45 44 41 39 36 35 36 38 38 39 38 37 37 37 35 34 34 33 32 31
47 48 49 49 49 49 49 49 49 48 48 47 47 48 49 49 49 48 48 49 49 50 48 46 47 48 48 48 49 50 50 49 47 46 45 44 42 42 44 44 43 44 43 43 44 42 39 36 35 36 36 37 38 37 37 37 37 35 34 33 32 32 31
48 49 49 50 50 50 50 49 49 49 49 49 48 48 49 49 50 50 50 50 49 49 49 48 49 49 48 49 50 50 51 50 48 47 46 45 44 43 44 43 43 44 43 43 44 44 39 36 35 35 35 36 37 37 36 37 36 34 33 32 31 31 30
49 49 49 50 50 50 50 50 49 49 49 49 48 48 48 49 49 50 50 50 50 49 48 48 49 50 49 49 50 51 51 50 49 48 47 45 44 43 43 44 44 43 43 43 44 44 40 37 36 35 35 36 37 37 37 36 36 35 33 32 31 30 28
50 49 49 49 49 49 49 49 49 49 48 48 48 48 48 47 47 48 48 48 48 46 45 44 45 48 50 49 50 51 51 50 49 47 47 45 44 43 43 43 44 43 43 43 43 42 41 39 37 36 36 36 36 36 37 36 36 35 33 31 30 29 27
50 49 49 48 48 48 47 47 48 48 48 48 47 47 46 45 45 45 44 44 44 43 42 40 39 41 46 50 50 50 50 50 49 47 46 45 44 43 43 44 44 44 43 43 42 42 41 38 37 36 35 35 36 36 37 37 36 35 33 30 28 27 26
49 49 49 48 47 46 46 46 46 46 46 46 45 45 44 43 43 43 42 42 42 42 42 42 41 39 41 46 49 50 49 49 48 47 46 45 43 42 43 44 44 44 43 42 42 41 40 38 37 37 35 35 37 39 38 36 34 33 32 29 27 26 24
48 48 48 48 48 47 46 46 45 45 44 42 41 42 43 43 43 42 42 43 43 44 44 44 45 43 41 42 45 48 51 50 49 49 48 47 44 43 44 45 45 45 44 42 41 41 39 38 38 37 35 35 37 38 36 34 33 32 30 28 27 26 23
48 48 47 47 47 47 46 45 44 43 42 41 41 42 42 44 44 44 44 44 46 48 47 45 44 43 42 41 42 44 49 51 52 51 50 50 48 45 46 46 46 45 44 42 41 40 39 39 39 37 36 36 36 36 35 33 32 30 29 27 27 25 21
48 48 47 46 46 46 46 45 43 42 41 42 41 39 39 42 44 45 45 45 46 47 47 46 44 42 42 42 41 41 44 48 50 49 48 49 48 46 47 48 47 46 45 43 41 40 39 40 39 37 36 36 35 35 34 33 31 30 29 27 26 24 20
47 47 46 45 45 45 45 44 43 41 41 41 39 37 37 39 42 44 44 44 44 44 44 43 43 42 42 41 40 40 42 44 47 46 44 44 44 44 46 48 47 46 45 44 43 42 41 40 38 37 37 36 35 35 33 32 32 30 28 26 24 22 18
46 46 45 44 43 44 45 44 43 41 40 39 38 36 36 37 40 42 42 41 41 41 41 40 39 40 40 39 39 39 40 41 43 44 43 43 43 43 44 45 45 45 44 43 43 43 42 41 39 38 36 34 33 34 33 32 31 28 25 23 21 19 15
45 45 44 43 42 44 45 43 41 39 38 37 36 35 36 38 40 41 41 39 39 38 39 39 39 39 39 38 37 37 39 40 41 42 43 44 43 41 41 42 42 42 42 41 42 42 40 38 38 36 35 33 33 33 32 29 27 23 20 19 17 17 16
44 43 43 43 42 43 45 43 40 38 37 35 34 34 35 38 39 40 41 39 38 37 38 38 37 37 37 37 35 33 35 37 38 40 43 44 43 41 39 40 40 39 39 38 37 37 35 32 31 30 29 30 31 31 29 27 25 22 20 18 18 19 18
43 42 42 42 41 43 45 44 41 40 38 37 35 34 35 37 39 40 40 39 37 36 36 34 33 32 33 34 33 31 31 33 34 38 42 42 41 40 39 38 37 36 35 34 32 33 32 29 27 25 24 25 27 26 25 26 27 26 23 22 22 21 17
42 41 40 40 41 42 46 46 44 43 43 41 36 33 34 36 38 39 38 37 35 33 33 31 29 28 29 31 31 29 30 31 33 37 40 39 39 39 38 37 35 33 32 32 30 30 29 27 25 23 23 25 25 23 24 26 29 28 25 25 26 22 15
42 42 39 39 41 43 46 47 46 45 46 43 37 35 33 34 36 37 36 34 33 31 30 28 25 24 25 27 28 28 29 30 32 36 38 36 36 37 37 36 33 30 30 31 31 31 30 29 27 23 22 26 26 23 24 25 25 27 28 27 26 22 15
40 41 40 40 43 44 45 47 49 48 47 43 39 35 33 32 34 34 33 31 29 28 27 25 22 22 23 25 27 27 28 29 30 34 36 34 34 34 32 30 28 27 28 30 31 33 33 33 33 28 23 26 27 24 24 25 22 24 28 29 25 21 18
39 41 42 42 44 46 46 47 49 50 49 45 40 34 29 28 29 30 29 28 27 25 25 23 20 19 20 23 25 25 26 26 27 30 33 32 30 27 23 22 23 23 25 28 30 33 34 35 38 34 25 23 26 25 24 26 24 22 25 29 25 21 20
38 42 45 46 46 47 47 46 48 50 49 47 41 32 25 23 25 27 27 26 25 24 24 22 19 18 18 20 23 23 23 23 23 26 29 27 24 20 19 20 22 21 22 25 27 29 32 35 38 37 27 21 25 27 23 24 26 22 23 27 26 22 21
39 44 48 50 49 48 47 47 49 50 49 48 42 31 22 20 22 23 23 22 22 22 22 20 18 16 16 18 20 22 22 21 21 23 24 23 21 19 19 21 22 19 19 22 22 24 29 32 36 39 31 21 22 26 24 22 24 24 24 26 25 23 21
40 45 49 52 51 49 49 49 51 51 50 48 44 31 21 20 21 19 18 18 19 20 19 17 14 13 14 16 18 19 20 20 21 22 22 21 20 20 20 22 23 20 17 19 20 21 25 28 32 39 36 24 20 23 24 22 22 23 25 27 25 24 22
42 46 49 51 51 51 50 50 52 52 50 51 48 32 19 18 18 16 18 19 19 18 17 14 11 10 11 13 15 15 16 18 19 20 20 20 20 20 21 24 25 22 19 19 19 19 21 24 29 37 37 28 21 21 22 23 23 22 24 27 25 22 20
43 47 49 49 49 49 49 50 53 52 53 56 49 28 13 12 12 11 15 19 19 16 14 12 10 9 9 12 13 13 13 15 16 17 18 18 19 20 21 24 25 24 21 21 19 18 18 21 27 34 37 34 29 25 21 22 24 22 22 24 24 21 19
43 46 47 47 46 46 47 51 52 53 57 58 41 17 7 11 12 10 10 12 14 13 11 10 9 8 7 9 11 12 12 11 13 15 16 17 18 19 20 21 22 22 22 21 19 17 15 16 21 28 33 37 39 36 28 24 23 21 21 22 22 20 19
43 44 43 43 43 43 47 50 51 52 58 55 33 12 9 11 10 10 10 7 10 12 10 9 8 7 6 6 8 10 10 10 12 14 16 17 17 17 18 17 17 17 20 21 20 18 16 15 16 20 25 31 38 41 37 30 26 24 23 22 22 21 21
38 38 39 39 38 39 43 48 49 50 53 47 29 15 14 12 8 9 9 3 9 11 10 10 10 9 7 8 9 10 10 11 12 14 16 17 17 17 17 17 15 15 18 20 21 21 19 17 16 18 20 23 30 38 41 37 32 29 26 23 23 24 24
30 32 34 34 34 36 39 42 43 45 46 40 28 19 15 11 7 6 8 2 10 13 10 9 11 10 9 10 11 11 12 13 13 15 16 18 19 20 20 20 20 18 18 19 20 20 19 17 16 17 20 22 24 29 34 35 34 33 31 27 26 26 24
25 27 27 27 30 36 38 37 36 40 42 37 29 23 18 12 8 3 6 8 5 11 10 8 10 10 9 10 9 10 12 13 12 13 14 14 17 21 23 24 24 22 20 20 20 20 18 16 17 17 20 23 24 26 28 28 28 29 29 27 26 24 22
28 28 25 23 26 32 38 37 34 36 38 34 29 26 22 16 9 4 6 11 5 5 6 5 6 5 5 6 6 6 8 11 11 11 11 11 14 18 21 23 25 24 21 20 21 21 17 16 18 18 18 20 22 24 25 24 24 24 24 25 24 21 19
31 31 29 26 25 30 36 36 31 32 35 33 29 27 23 19 16 12 9 11 9 4 3 3 2 1 2 4 4 3 4 8 10 10 11 12 13 14 17 21 24 23 21 19 20 21 18 15 18 19 18 17 19 22 23 23 23 23 23 23 22 19 18
35 33 32 31 28 30 34 35 30 30 33 31 28 27 23 18 15 12 10 10 11 8 7 6 2 0 2 4 5 6 7 8 10 12 13 15 14 12 14 18 21 21 20 18 18 19 18 17 18 19 19 18 19 21 22 23 23 22 23 24 22 19 17
39 36 34 33 32 32 34 34 30 28 30 29 27 25 22 20 21 22 20 18 17 15 12 9 6 3 3 5 7 9 10 11 11 12 13 15 15 14 15 17 19 19 18 18 17 17 17 17 18 19 19 18 19 21 24 24 24 23 24 25 23 19 16
40 37 34 33 33 32 33 33 31 28 28 28 27 25 23 24 26 27 26 25 25 24 21 18 15 12 9 6 4 3 3 3 5 7 10 14 15 15 16 17 17 17 17 17 18 17 16 16 18 20 18 16 19 24 25 24 23 23 24 24 23 20 16
Wind_Direction
314 313 312 311 310 310 309 308 307 306 304 301 297 294 290 287 283 280 276 273 269 266 266 267 266 265 264 263 261 262 261 260 260 260 259 259 256 253 252 252 250 251 259 264 262 261 261 260 260 261 261 263 264 263 264 265 264 266 273 276 275 275 276
314 314 313 312 311 311 310 309 307 306 304 301 298 296 293 289 286 283 279 276 272 267 264 264 265 264 263 261 259 259 260 259 258 257 257 256 253 252 251 251 250 249 254 260 261 260 260 258 256 257 259 262 263 263 264 264 265 267 271 273 273 274 274
315 314 313 313 312 311 310 309 308 306 303 301 298 296 293 291 288 285 282 279 275 270 265 263 263 262 261 259 256 255 257 258 257 255 254 255 253 251 251 250 249 248 250 255 258 258 257 256 255 256 259 261 262 263 263 263 264 266 268 269 270 272 273
316 316 315 314 313 312 311 310 308 307 304 302 300 297 295 292 289 287 284 280 276 273 267 261 260 260 258 256 254 253 255 255 254 252 252 252 251 250 251 250 249 248 248 251 255 256 255 255 254 256 259 260 261 261 261 261 263 264 265 266 268 270 272
318 317 316 315 315 314 312 311 310 308 306 305 303 301 298 295 293 290 287 284 280 276 270 263 258 257 257 257 254 252 253 252 250 250 250 250 250 250 250 249 248 247 247 248 251 253 254 253 253 255 257 258 258 259 260 260 261 263 264 264 265 268 271
319 318 317 316 315 314 313 312 311 309 307 306 304 302 300 297 294 291 288 285 283 279 274 268 260 254 254 256 254 251 250 249 247 247 247 248 249 249 248 248 247 246 245 245 247 251 252 251 251 251 252 254 256 257 258 259 260 262 263 263 263 266 270
319 319 317 316 315 314 313 312 310 308 307 305 303 301 299 296 294 292 289 286 284 282 278 273 266 257 252 252 253 251 249 247 246 245 245 247 249 249 248 247 246 244 243 243 244 247 248 248 249 248 249 252 254 256 257 257 258 259 259 261 263 266 270
320 318 317 316 314 314 313 311 309 307 306 304 303 302 301 299 298 295 292 289 287 285 282 278 273 264 255 251 251 251 249 247 245 244 245 246 247 248 247 246 245 243 240 240 241 243 245 246 246 245 245 247 249 250 251 252 255 256 257 260 263 265 269
319 318 317 315 314 314 312 310 307 306 306 305 304 302 299 297 294 290 285 283 282 281 281 279 277 272 262 254 251 250 248 247 245 244 244 245 245 246 246 245 243 240 237 238 238 240 242 242 243 242 240 240 244 247 249 252 254 255 256 260 263 263 266
319 318 317 316 315 313 311 309 307 306 307 304 299 295 292 289 286 283 280 279 279 278 278 277 274 272 268 262 255 250 247 246 246 246 246 246 246 246 246 243 240 237 235 235 235 237 238 238 239 239 236 238 243 248 251 252 253 253 255 260 263 264 265
319 318 317 317 315 312 310 309 309 309 307 302 295 291 289 285 283 281 280 279 280 280 281 279 275 271 268 265 261 254 247 246 247 247 246 247 248 249 247 242 237 234 233 233 234 235 235 236 238 238 237 238 242 246 248 250 251 253 255 257 262 266 264
320 319 318 317 314 312 311 311 310 310 306 301 298 295 290 287 285 284 282 281 280 279 279 279 277 273 268 265 263 258 251 247 247 247 246 248 248 248 247 244 239 235 233 232 233 234 235 236 237 237 237 238 240 243 246 250 251 252 254 256 260 264 262
321 320 318 317 315 313 313 312 311 311 307 303 302 299 292 288 287 286 286 285 284 281 279 277 277 275 271 266 263 259 254 249 246 245 246 249 249 246 244 244 243 241 238 236 235 235 235 236 236 235 237 240 242 244 246 249 249 250 253 255 258 261 259
322 320 318 317 317 316 314 313 314 314 310 306 302 297 291 287 286 287 286 285 284 281 279 277 276 276 273 269 266 261 254 248 244 243 245 248 250 247 243 242 242 243 241 239 238 237 237 238 238 238 241 243 244 245 247 248 249 250 252 255 259 257 249
322 320 319 319 320 318 316 317 319 317 312 307 302 296 292 289 288 288 287 285 284 282 279 277 277 276 274 270 268 262 253 245 242 243 244 247 248 246 242 240 239 238 237 237 238 239 239 240 240 242 244 246 246 247 248 250 250 249 250 252 250 242 236
323 322 321 321 322 321 319 320 323 321 316 311 304 298 294 291 289 289 288 287 288 286 283 280 276 274 271 267 266 262 252 244 242 241 242 243 243 242 241 239 236 235 234 234 235 237 239 241 242 243 244 244 245 246 246 247 246 240 237 235 229 227 230
324 324 324 324 324 323 322 323 327 325 320 316 310 303 298 293 290 290 288 287 287 286 284 280 275 269 265 262 261 257 248 243 241 240 239 238 237 237 237 237 236 234 232 232 234 236 238 240 241 240 240 241 243 241 237 237 235 231 228 225 222 224 227
326 326 326 326 326 327 325 325 328 327 323 320 315 307 300 296 294 292 290 288 288 287 285 283 276 266 257 253 251 249 244 241 237 234 233 233 232 232 232 233 235 233 229 228 231 232 231 233 236 236 236 239 242 240 235 231 229 227 225 221 220 223 222
329 328 329 330 330 330 329 327 327 328 325 322 317 310 302 297 295 292 289 288 288 287 286 284 275 260 250 244 242 240 239 237 232 228 228 229 228 227 228 230 233 232 228 227 228 228 226 227 229 232 235 237 237 235 236 233 228 225 223 219 218 219 214
331 331 332 334 334 333 332 329 328 328 327 323 318 312 304 298 293 288 285 285 285 284 283 280 270 256 246 240 236 234 231 229 226 224 225 227 226 226 227 229 230 230 230 229 230 231 230 229 230 230 231 233 229 223 226 231 228 223 219 216 216 213 206
334 334 335 337 336 335 334 332 329 329 328 326 322 315 305 296 287 280 279 279 278 278 279 277 266 253 243 235 232 232 228 224 222 221 221 224 226 226 225 226 225 225 227 230 231 232 231 230 231 230 225 223 223 216 215 222 227 222 214 212 211 207 202
336 336 337 339 338 336 335 334 332 331 330 330 328 318 304 293 280 272 273 274 274 277 280 275 262 252 244 233 227 227 224 219 215 216 219 220 222 223 220 222 224 223 224 228 229 228 227 226 227 226 218 209 213 214 211 216 222 221 213 208 207 205 202
338 337 337 338 338 337 336 335 334 333 332 333 332 322 303 290 280 271 270 271 271 274 276 269 258 251 247 236 226 222 221 217 210 212 219 220 217 217 217 218 223 224 224 227 226 223 224 224 222 219 213 200 200 209 214 217 219 218 212 205 203 205 204
337 337 336 336 336 336 336 335 334 333 333 335 336 327 304 291 286 273 267 269 268 266 266 262 255 250 245 235 225 221 221 217 210 210 217 217 212 215 214 211 217 224 224 223 221 217 219 222 218 214 210 201 192 200 212 220 220 217 212 207 203 204 201
336 336 335 335 335 334 334 334 334 333 334 337 336 329 309 297 289 268 259 260 256 255 259 257 247 243 239 231 225 223 223 220 215 212 214 212 209 213 213 210 213 221 223 222 220 217 216 217 217 214 210 202 193 194 206 217 218 213 211 210 208 204 201
335 335 334 335 335 334 333 335 336 336 339 340 337 330 319 320 311 278 261 257 248 246 253 247 231 226 231 230 226 225 226 224 219 213 210 210 211 211 212 213 215 218 222 224 224 221 216 213 213 214 212 209 208 205 201 205 207 205 207 208 203 197 202
334 333 334 335 335 335 337 339 340 341 344 345 341 329 322 335 330 315 292 264 240 234 240 234 216 207 218 223 218 217 220 220 217 211 206 207 210 209 209 216 221 223 227 231 230 228 223 215 212 213 212 211 214 212 203 195 195 198 202 202 197 198 208
331 332 334 336 337 339 341 342 343 344 347 349 347 331 320 332 330 326 321 279 223 216 222 218 198 188 199 200 196 205 212 211 216 218 212 208 209 208 208 213 221 226 229 233 234 232 228 221 216 215 212 209 210 212 208 200 198 200 201 199 198 203 209
331 334 338 341 342 344 343 341 342 346 352 356 358 342 323 329 338 339 337 286 195 195 209 209 191 184 198 202 200 208 213 212 218 223 222 218 215 211 207 210 218 226 229 231 232 231 229 224 218 215 211 205 204 208 210 209 209 209 209 206 204 206 210
337 340 345 347 347 348 347 343 346 353 358 2 7 359 337 325 327 353 9 43 179 186 197 201 192 190 202 208 211 219 224 224 225 227 230 231 224 215 211 212 216 222 228 230 231 230 228 223 214 205 198 193 192 199 205 208 211 211 211 211 210 210 215
346 346 349 352 352 353 352 350 355 3 4 4 12 20 11 345 312 303 27 45 149 184 188 185 185 190 197 204 220 235 231 225 222 224 228 227 217 211 212 215 215 217 223 228 228 228 226 215 205 199 191 185 186 189 192 197 202 205 206 207 210 213 216
356 354 355 359 359 358 357 355 359 7 8 9 19 32 34 28 32 80 57 37 50 184 188 169 172 184 198 213 234 239 221 214 217 221 222 217 213 211 211 212 213 214 219 223 223 224 221 205 196 198 194 186 186 187 187 188 192 194 196 199 205 210 210
4 2 2 5 8 5 2 0 3 10 12 14 22 34 44 54 67 82 69 44 49 93 114 91 139 214 274 266 259 251 225 221 224 224 219 215 219 221 214 210 211 213 217 221 220 219 214 198 193 199 199 191 187 185 183 183 183 184 187 192 196 198 195
4 6 6 8 12 13 9 6 8 14 17 17 23 33 44 56 65 68 63 55 58 62 57 53 61 279 290 279 267 268 266 251 239 234 227 219 217 215 208 207 209 211 213 215 217 215 209 198 197 201 199 194 190 184 180 180 182 183 185 186 187 185 181
357 2 4 6 12 16 13 10 12 18 20 21 24 29 37 48 53 53 53 53 52 49 45 42 34 5 316 287 274 271 272 267 257 244 226 211 203 198 195 199 204 208 209 209 212 214 211 202 200 203 200 194 187 182 181 180 180 179 178 177 178 178 174
354 358 360 3 10 16 16 14 16 19 21 24 27 28 33 40 44 45 46 48 49 50 51 51 49 48 45 37 14 341 319 296 268 234 207 194 188 185 184 188 194 197 199 201 204 209 212 207 201 201 202 195 182 175 173 172 170 170 172 173 175 176 174